Simultaneous Nadir Overpasses (SNOs) Predictions

Prediction of SNOs between NOAA-19 and NPP Satellite Orbit:

Table of predicted SNOs for the next 14.0 days since TLE Epoch: 3/25/2016
Index Date (NOAA-19) Time (NOAA-19) Lat,Lon (NOAA-19) SZA (NOAA-19 ) Date (NPP) Time (NPP) Lat,Lon (NPP) SZA (NPP ) Distance(km) Time Diff (sec)
1 03/31/2016 17:30:02 81.01,-135.80 80.26 03/31/2016 17:31:04 81.01,-135.63 80.20 2.95 62
2 03/31/2016 18:21:05 -81.01, 31.26 99.74 03/31/2016 18:21:50 -81.02, 31.39 99.78 2.39 45
3 03/31/2016 19:12:04 81.01,-161.25 80.22 03/31/2016 19:12:35 81.02,-161.40 80.23 2.90 31
4 03/31/2016 20:03:06 -81.01, 6.19 99.82 03/31/2016 20:03:19 -81.00, 6.35 99.86 3.04 13
5 03/31/2016 20:54:05 81.01, 173.68 80.14 03/31/2016 20:54:04 81.01, 173.57 80.15 2.16 1
6 03/31/2016
